TimeEST,TemperatureF,Dew PointF,Humidity,Sea Level PressureIn,VisibilityMPH,Wind Direction,Wind SpeedMPH,Gust SpeedMPH,PrecipitationIn,Events,Conditions,WindDirDegrees,DateUTC
12:51 AM,24.1,23.0,96,30.20,8.0,Calm,Calm,-,0.00,Snow,Light Snow,0,2011-12-18 05:51:00
1:51 AM,25.0,23.0,92,30.19,7.0,South,3.5,-,0.00,Snow,Light Snow,170,2011-12-18 06:51:00
2:51 AM,26.1,24.1,92,30.20,6.0,Calm,Calm,-,0.00,Snow,Light Snow,0,2011-12-18 07:51:00
2:59 AM,26.6,24.8,93,30.15,6.0,South,3.5,-,0.00,Snow,Light Snow,180,2011-12-18 07:59:00
3:35 AM,26.6,24.8,93,30.15,4.0,South,3.5,-,N/A,Snow,Light Snow,180,2011-12-18 08:35:00
3:51 AM,27.0,24.1,89,30.20,4.0,SSW,4.6,-,0.01,Snow,Light Snow,200,2011-12-18 08:51:00
4:41 AM,26.6,24.8,93,30.14,5.0,SSW,5.8,-,0.00,Snow,Light Snow,200,2011-12-18 09:41:00
4:51 AM,27.0,25.0,92,30.19,6.0,South,5.8,-,0.00,Snow,Light Snow,190,2011-12-18 09:51:00
5:35 AM,26.6,24.8,93,30.16,7.0,SSW,4.6,-,0.00,Snow,Light Snow,210,2011-12-18 10:35:00
5:51 AM,27.0,24.1,89,30.20,7.0,SSW,5.8,-,0.00,Snow,Light Snow,200,2011-12-18 10:51:00
6:31 AM,26.6,24.8,93,30.16,7.0,SW,6.9,-,0.00,Snow,Light Snow,220,2011-12-18 11:31:00
6:51 AM,27.0,24.1,89,30.22,7.0,SW,9.2,-,0.00,Snow,Light Snow,220,2011-12-18 11:51:00
7:51 AM,28.0,25.0,88,30.22,5.0,SW,6.9,-,0.00,Snow,Light Snow,220,2011-12-18 12:51:00
8:06 AM,28.4,24.8,86,30.17,4.0,SSW,4.6,-,0.00,Snow,Light Snow,200,2011-12-18 13:06:00
8:51 AM,28.9,25.0,85,30.23,4.0,SSW,6.9,-,0.00,Snow,Light Snow,210,2011-12-18 13:51:00
9:26 AM,28.4,26.6,93,30.19,3.0,SW,9.2,-,0.00,Snow,Light Snow,220,2011-12-18 14:26:00
9:51 AM,30.0,26.1,85,30.24,4.0,SW,9.2,-,0.00,Snow,Light Snow,230,2011-12-18 14:51:00
10:18 AM,30.2,26.6,86,30.20,4.0,SW,9.2,-,0.00,Snow,Light Snow,230,2011-12-18 15:18:00
10:51 AM,30.9,26.1,82,30.26,5.0,SW,11.5,-,0.00,Snow,Light Snow,230,2011-12-18 15:51:00
11:26 AM,32.0,26.6,80,30.20,6.0,WSW,10.4,-,0.00,,Haze,240,2011-12-18 16:26:00
11:51 AM,33.1,26.1,75,30.25,8.0,WSW,12.7,-,0.00,,Mostly Cloudy,250,2011-12-18 16:51:00
12:51 PM,34.0,25.0,70,30.25,10.0,West,12.7,18.4,N/A,,Mostly Cloudy,270,2011-12-18 17:51:00
1:21 PM,35.6,23.0,60,30.20,10.0,West,13.8,-,N/A,,Mostly Cloudy,260,2011-12-18 18:21:00
1:51 PM,34.0,23.0,64,30.24,10.0,West,9.2,-,N/A,,Mostly Cloudy,270,2011-12-18 18:51:00
2:51 PM,33.1,24.1,70,30.24,10.0,SW,10.4,-,N/A,,Mostly Cloudy,230,2011-12-18 19:51:00
3:51 PM,33.1,24.1,70,30.24,10.0,SW,6.9,-,N/A,,Overcast,220,2011-12-18 20:51:00
4:51 PM,33.1,23.0,66,30.24,10.0,SW,9.2,-,N/A,,Mostly Cloudy,220,2011-12-18 21:51:00
5:51 PM,32.0,23.0,69,30.24,10.0,SSW,6.9,-,N/A,,Mostly Cloudy,200,2011-12-18 22:51:00
6:29 PM,32.0,23.0,69,30.19,10.0,SSW,5.8,-,N/A,,Mostly Cloudy,200,2011-12-18 23:29:00
6:51 PM,32.0,23.0,69,30.22,10.0,South,8.1,-,N/A,,Mostly Cloudy,170,2011-12-18 23:51:00
7:20 PM,32.0,24.8,75,30.17,10.0,South,8.1,-,N/A,,Mostly Cloudy,170,2011-12-19 00:20:00
7:51 PM,32.0,24.1,73,30.21,10.0,South,8.1,-,N/A,,Mostly Cloudy,170,2011-12-19 00:51:00
8:51 PM,32.0,24.1,73,30.20,9.0,South,9.2,-,N/A,,Scattered Clouds,180,2011-12-19 01:51:00
9:51 PM,32.0,24.1,73,30.18,10.0,South,11.5,-,N/A,,Partly Cloudy,180,2011-12-19 02:51:00
10:51 PM,32.0,24.1,73,30.17,10.0,South,10.4,-,N/A,,Clear,180,2011-12-19 03:51:00
11:51 PM,32.0,25.0,75,30.14,10.0,South,8.1,-,N/A,,Clear,180,2011-12-19 04:51:00